Wind_Speed
19 18 20 23 23 24 25 25 24 23 17 13 11 10 10 12 13 14 14 15 16 18 18 19 19 19 18 16 16 17 16 16 15 14 14 13 11 10 9 9 9 10 10 10 10 9 9 9 9 8 7 7 6 5 5 4 4 3 3 3 2 3 3 2 2 2 2 2 2 3 3 3 3 3 3 3 3 4 4 5 5 5 6 6 6
19 19 21 23 23 24 25 25 24 24 18 13 12 10 10 11 12 13 14 14 16 17 18 18 18 18 17 16 15 16 16 16 15 14 14 13 11 10 10 10 10 10 10 11 11 10 10 10 9 9 8 7 7 6 5 4 3 3 3 3 3 3 3 3 2 2 2 2 3 3 3 3 3 3 3 3 3 4 4 5 5 6 6 6 6
19 19 21 23 24 24 25 25 24 24 19 14 12 11 10 11 12 13 14 14 15 17 18 17 17 17 16 15 15 16 16 15 15 15 14 13 12 11 10 10 10 10 10 10 11 11 10 10 10 9 8 7 7 6 6 4 4 3 3 3 3 3 3 3 3 3 3 3 3 3 4 4 3 3 3 3 3 4 4 5 5 6 6 6 7
19 19 21 23 24 24 24 25 24 24 20 15 13 12 11 11 12 13 13 14 15 16 17 17 16 17 16 15 15 15 15 15 15 15 14 14 14 13 12 11 11 11 11 10 11 11 11 10 10 9 8 7 7 6 6 5 4 3 3 3 3 3 3 3 3 3 3 3 3 4 4 4 4 3 3 3 3 4 4 5 5 6 6 7 7
19 20 22 24 25 24 24 25 25 25 21 15 13 12 11 11 11 12 13 14 15 16 17 17 16 16 16 15 15 15 15 15 15 15 15 14 14 14 13 12 12 11 11 11 11 12 11 10 10 9 9 8 7 6 6 6 5 4 3 3 3 3 3 3 3 3 3 4 4 4 5 5 5 4 4 4 4 4 4 5 6 6 7 7 7
20 22 23 24 25 25 25 25 25 25 21 16 14 12 11 10 11 12 13 14 15 16 17 17 16 16 16 15 15 15 15 15 15 16 16 15 15 15 14 13 13 12 11 12 12 12 12 11 10 9 9 8 7 6 6 6 6 6 5 4 3 3 3 3 3 3 4 4 4 5 5 6 6 6 6 6 5 5 5 6 7 7 7 7 7
22 23 23 24 24 25 25 25 26 26 22 16 14 13 11 10 11 12 13 15 16 17 17 17 16 16 16 15 15 15 15 16 16 16 16 16 15 15 15 15 14 12 12 12 12 13 12 12 10 9 9 8 7 6 6 6 6 6 6 5 4 4 4 4 4 4 4 4 5 5 6 6 7 7 7 7 6 6 6 7 7 8 8 8 8
23 23 23 24 24 25 25 26 26 26 22 16 14 13 11 11 10 12 13 15 16 17 17 17 16 16 16 16 15 15 15 16 16 16 16 16 16 16 16 15 15 14 12 12 13 13 13 13 12 10 9 8 8 7 7 6 6 6 6 6 6 6 5 5 5 5 5 5 6 6 6 7 7 8 8 7 7 7 7 8 8 9 9 9 9
23 23 23 24 24 25 25 26 27 26 21 16 14 13 11 10 10 12 13 15 16 17 17 17 17 17 16 16 15 15 15 16 17 17 16 16 16 16 16 16 15 15 14 13 13 14 14 14 13 11 10 9 8 8 8 7 7 7 7 7 7 7 7 6 6 6 6 6 6 7 7 7 7 8 8 8 8 8 8 8 9 9 10 10 10
23 23 24 24 25 25 26 27 28 25 19 15 14 12 11 10 10 12 14 15 16 17 17 17 18 17 16 16 15 15 16 16 17 17 16 16 17 17 16 16 16 15 15 14 14 14 14 14 13 12 11 10 10 9 9 9 9 9 9 9 8 8 8 8 7 7 7 8 7 8 8 8 8 8 8 8 9 9 9 9 9 10 10 10 10
24 24 24 25 25 26 26 27 27 23 17 14 13 12 11 10 11 12 14 15 16 17 17 18 18 17 16 16 15 16 16 17 18 17 16 16 17 17 17 16 15 15 14 14 15 15 14 14 14 14 13 12 11 10 10 10 9 9 9 9 9 9 9 9 8 8 9 9 9 9 9 9 9 9 9 9 9 9 9 9 9 9 9 10 10
24 25 25 25 26 26 27 28 25 20 15 13 13 12 11 10 11 12 14 15 16 17 17 18 18 17 15 15 15 16 17 18 18 17 16 16 16 17 17 16 15 14 14 14 14 14 13 13 15 15 14 13 12 11 10 10 10 9 10 10 10 10 10 10 10 10 10 10 10 10 9 9 9 10 10 10 10 10 10 10 10 10 9 9 9
26 26 26 26 26 27 27 27 23 18 14 13 12 11 10 10 11 12 13 15 16 17 18 18 17 16 15 15 16 17 18 18 18 17 16 16 16 16 16 15 14 14 14 14 14 13 13 13 14 15 14 14 13 12 11 11 10 10 10 10 10 11 11 11 11 10 10 11 11 10 10 10 10 10 10 10 11 11 11 11 11 10 10 10 9
27 27 26 26 27 27 28 25 20 16 14 12 12 11 10 10 10 11 13 14 16 16 18 18 16 15 15 15 16 17 18 17 17 16 15 15 15 15 15 14 13 13 14 14 14 14 14 15 15 14 14 15 15 14 12 12 11 11 10 10 10 11 11 11 11 11 11 11 11 11 10 10 10 10 11 11 11 11 12 12 12 11 11 10 10
28 27 26 27 27 27 26 21 17 15 13 12 11 11 10 10 10 11 13 14 15 16 17 16 15 14 14 15 17 17 17 17 16 15 15 15 14 14 14 13 13 13 14 15 14 14 15 15 15 14 14 16 16 15 13 12 12 11 11 11 11 11 11 11 11 11 12 12 12 12 11 11 11 11 11 11 12 12 12 12 12 12 11 11 10
28 27 27 27 26 25 21 18 16 13 11 11 11 10 10 9 9 11 12 13 14 16 16 14 13 13 14 16 17 17 16 15 15 14 14 14 13 13 13 13 13 14 15 15 14 14 14 15 15 14 14 15 17 15 14 13 12 11 11 11 12 12 12 12 13 13 13 14 14 13 12 12 12 12 12 12 12 13 13 13 13 13 12 12 11
27 27 27 26 24 20 17 16 14 12 11 10 10 10 10 9 9 10 12 12 14 16 15 13 12 12 15 17 17 17 15 14 13 13 13 13 12 11 11 11 12 13 14 14 14 14 14 15 15 14 14 14 16 15 14 13 12 11 11 12 12 13 13 13 14 14 14 15 15 15 14 14 13 13 13 14 14 14 14 14 13 13 13 13 13
26 25 24 22 20 17 16 15 13 11 10 10 10 10 9 9 9 10 11 12 14 14 13 12 11 13 15 16 17 16 14 12 12 12 12 11 11 10 10 10 11 12 13 14 14 14 14 14 14 14 14 14 14 15 14 14 13 12 12 12 13 13 14 15 15 15 16 16 16 16 16 15 15 15 15 16 16 16 15 15 14 13 13 13 13
23 22 21 19 17 16 15 14 13 11 10 10 10 9 9 8 9 9 10 12 14 13 11 11 12 14 15 16 16 15 13 11 11 10 10 10 9 9 9 10 10 11 12 13 14 14 14 14 13 13 13 13 14 14 14 14 13 13 13 13 13 13 14 15 15 15 16 16 17 17 17 16 16 16 16 16 16 16 16 15 15 14 13 13 13
20 19 18 17 16 15 15 14 12 11 10 10 9 9 9 9 9 9 10 12 13 11 10 12 14 15 16 15 15 13 12 10 9 9 9 8 8 8 9 9 9 11 12 14 14 15 14 13 12 12 12 12 13 13 13 13 13 14 14 14 14 14 14 15 15 14 15 15 15 16 17 17 16 16 16 15 15 15 15 15 15 14 14 14 14
18 17 17 15 15 15 15 14 13 11 10 10 9 9 9 9 8 8 10 12 11 10 10 13 15 16 16 15 13 12 10 9 9 8 8 8 8 7 7 8 8 10 12 13 14 14 14 13 12 12 12 12 12 12 12 12 13 13 14 14 15 15 15 15 15 15 15 15 15 16 16 16 16 16 15 15 15 15 15 15 15 15 14 14 14
16 15 15 15 15 15 15 14 13 12 11 10 9 10 10 9 9 9 10 11 10 10 11 13 15 16 15 14 12 10 9 9 8 8 8 7 7 7 6 7 9 10 12 12 13 13 14 13 13 12 12 12 13 13 12 12 12 13 13 14 14 15 16 17 17 16 16 15 15 16 16 16 16 16 16 16 16 15 15 16 15 15 15 15 15
14 14 15 15 16 16 15 15 14 12 12 11 11 10 10 9 10 10 10 10 9 9 11 13 14 16 15 13 11 10 9 9 9 8 8 7 6 6 6 8 10 11 12 12 13 13 13 14 14 13 13 14 14 14 13 13 13 13 13 13 14 15 16 17 18 18 18 17 17 18 17 18 18 18 18 18 18 17 17 17 16 16 15 16 16
15 15 16 16 16 16 16 15 14 13 13 12 12 11 11 11 11 10 10 10 9 9 11 13 14 15 13 12 10 9 9 9 9 8 7 7 6 6 7 8 10 11 12 13 12 13 13 14 14 14 14 15 15 15 14 13 13 13 13 13 13 14 16 17 18 18 19 18 18 19 18 18 18 19 19 20 19 19 18 18 17 16 16 16 17
17 17 17 17 16 16 16 16 15 14 14 13 13 13 12 12 11 11 11 10 9 9 10 12 14 14 12 11 10 9 9 9 9 9 8 7 6 6 7 9 10 11 12 12 12 12 13 13 13 14 14 14 15 15 15 14 14 14 13 14 14 14 14 16 17 18 19 19 18 19 18 18 18 19 20 21 21 20 19 19 18 17 16 17 17
19 18 18 17 17 17 16 16 15 15 15 15 14 14 14 12 12 11 11 10 9 8 10 12 13 12 12 10 9 9 8 8 8 9 9 8 7 7 7 9 10 10 11 11 11 12 12 13 13 14 14 14 15 16 16 16 15 15 14 14 15 15 15 15 15 16 17 18 17 18 18 18 19 19 20 21 21 21 20 20 19 18 17 17 17
21 20 19 18 18 17 17 17 17 17 16 16 16 15 14 13 12 12 11 10 9 8 9 11 11 11 11 10 9 9 8 8 8 8 8 8 8 9 9 10 10 10 11 11 11 12 12 13 14 14 15 15 17 17 17 17 17 17 17 16 16 17 18 18 17 18 19 19 18 18 19 19 19 20 20 21 20 20 20 20 19 19 19 18 17
22 21 20 19 19 18 18 18 18 18 18 18 17 16 15 14 13 12 12 11 10 9 8 10 11 11 10 9 9 9 9 8 9 9 9 9 9 10 10 10 10 10 10 11 12 12 13 14 14 15 16 17 18 18 18 19 19 19 19 19 19 20 20 21 21 21 21 22 21 20 21 21 19 19 20 20 20 19 19 20 20 19 19 19 18
23 21 20 20 20 20 20 19 20 19 19 19 17 17 16 15 14 14 13 12 11 10 9 9 10 10 10 9 9 9 9 9 9 9 9 10 10 10 10 10 10 11 11 11 12 12 13 14 15 16 17 18 18 18 19 19 20 20 20 21 21 21 21 21 21 22 22 22 22 21 21 22 20 20 20 20 20 20 19 20 20 20 20 20 19
23 22 21 21 21 21 21 20 20 20 20 19 18 18 17 16 16 15 14 13 12 11 9 9 9 10 9 9 9 10 10 10 10 10 10 11 11 11 11 12 12 12 12 12 13 13 14 14 15 16 17 17 18 18 18 19 19 20 20 21 21 21 21 21 21 21 21 22 22 21 21 22 21 20 20 20 20 20 19 19 19 19 19 20 20
26 25 23 23 23 22 22 21 21 21 21 20 20 19 18 18 18 16 15 14 13 12 10 9 8 9 10 9 9 10 10 11 11 11 11 11 12 12 12 13 13 14 14 14 14 14 14 15 15 15 16 17 17 18 19 19 19 20 20 20 21 21 20 21 21 21 21 22 22 22 21 21 22 21 21 21 21 21 20 19 19 19 19 19 19
28 28 26 25 25 24 23 22 22 22 22 22 21 20 20 19 18 17 16 15 13 12 11 9 8 8 9 9 9 9 10 10 11 11 11 12 12 13 13 13 14 14 14 15 15 15 15 15 15 15 16 16 17 18 18 19 20 20 21 21 21 21 20 20 20 20 21 21 21 22 22 22 22 22 21 21 21 22 21 20 19 19 18 19 19
30 30 29 27 26 25 24 23 24 24 24 23 22 21 21 20 20 18 16 15 14 13 11 10 9 8 9 9 9 9 10 10 11 11 11 12 12 12 13 14 14 15 15 16 16 16 17 17 17 17 17 18 18 18 19 19 20 20 21 22 22 22 22 22 21 21 21 21 21 21 22 22 22 22 22 22 22 21 21 21 20 20 19 19 19
31 30 30 29 27 26 25 25 25 26 25 24 24 24 23 22 20 19 16 15 14 14 12 11 10 9 9 9 10 10 10 11 11 11 12 12 12 13 13 14 15 15 16 16 17 18 18 18 19 19 19 20 20 20 20 20 20 21 21 22 22 22 23 24 24 23 22 22 22 21 22 22 23 23 22 23 23 21 20 20 21 21 21 21 20
30 30 30 29 28 27 27 27 27 27 26 25 25 24 23 22 19 17 16 16 15 14 13 12 12 11 10 11 11 11 11 11 12 12 13 13 13 14 14 15 15 16 16 17 17 18 18 19 19 20 20 21 21 22 21 21 21 22 22 22 22 22 23 24 25 25 24 23 23 22 22 23 23 23 23 22 22 22 21 20 20 21 21 21 21
29 29 29 28 28 28 27 27 26 26 26 25 23 21 20 20 19 16 16 16 16 15 14 13 13 12 12 12 12 12 12 13 13 13 14 14 14 15 16 16 16 17 17 17 18 18 19 19 20 21 21 21 22 22 22 22 22 22 23 23 23 23 23 24 25 26 26 25 25 24 23 23 22 23 23 23 22 21 22 22 21 21 21 21 21
26 25 27 27 26 25 24 24 23 24 25 23 20 18 16 16 17 17 16 16 16 16 15 14 14 14 13 14 14 14 14 15 15 15 16 15 16 17 18 18 18 19 19 19 19 20 21 21 22 22 22 23 22 22 22 23 23 23 23 24 24 24 24 24 24 25 26 26 25 24 24 23 23 23 23 23 23 21 21 22 22 21 21 21 22
25 26 27 27 24 22 22 23 21 21 22 21 19 17 14 13 15 17 17 17 16 16 15 15 15 15 15 15 16 16 16 17 17 17 17 17 17 18 19 20 20 21 21 21 21 22 22 23 23 24 24 24 24 24 24 24 24 24 24 24 25 24 24 24 24 25 25 26 25 25 24 23 23 23 23 23 23 22 21 21 22 21 21 21 22
25 28 26 25 25 22 20 20 18 18 18 17 16 17 15 14 16 17 17 17 17 16 16 16 16 16 16 17 17 18 18 18 18 19 19 19 20 20 21 21 22 23 23 23 23 23 24 24 25 25 26 26 26 26 26 26 26 26 26 26 26 26 25 24 25 25 26 26 26 25 25 24 23 23 23 23 22 23 21 20 20 21 21 21 21
22 24 22 20 21 19 18 17 16 17 16 14 14 14 15 16 17 17 17 17 17 17 16 16 16 16 17 17 18 18 19 19 20 20 21 21 22 22 22 23 24 24 24 24 25 25 25 25 26 26 27 27 28 28 28 27 27 28 28 28 27 27 27 26 25 26 26 26 26 26 26 25 25 24 23 24 23 23 23 21 21 21 21 21 21
19 18 17 17 15 13 14 13 14 14 14 13 14 13 15 16 17 17 17 17 17 17 16 16 16 16 17 18 18 19 19 20 20 21 22 22 23 23 24 24 25 25 25 25 25 26 26 26 27 27 28 29 29 29 30 29 29 29 29 29 28 28 28 27 27 27 26 26 26 26 26 26 26 25 24 24 24 24 23 23 22 22 22 22 21
20 17 16 14 12 10 10 11 12 12 12 12 11 11 14 15 15 16 16 16 16 16 16 16 16 17 18 18 18 19 19 20 20 21 22 23 23 24 24 25 25 25 26 25 26 26 26 27 28 28 29 30 31 31 31 32 31 31 30 30 30 30 30 29 28 28 28 27 27 27 27 27 26 27 26 25 24 24 24 23 23 23 23 23 23
18 18 16 13 11 10 10 12 12 11 11 11 10 10 12 13 14 15 14 14 15 15 15 16 17 18 18 18 18 19 19 19 20 21 22 22 23 24 24 24 25 25 25 25 25 26 26 27 28 28 29 30 31 32 33 33 33 33 33 32 32 32 32 31 30 29 29 28 28 29 29 28 28 28 28 28 27 26 25 25 24 24 23 24 25
17 17 17 15 12 9 10 12 12 12 12 11 11 11 12 13 14 14 14 15 15 15 16 17 18 18 18 19 19 19 19 20 20 21 22 23 23 24 24 24 24 24 24 25 25 26 27 28 29 29 29 30 31 33 34 34 35 35 35 34 34 33 34 34 33 31 31 30 29 30 30 30 30 29 29 29 30 29 28 27 27 26 25 25 26
17 16 16 16 13 11 11 12 12 13 14 13 12 13 13 14 14 15 15 15 16 17 17 18 18 19 19 19 19 20 20 20 21 21 22 23 23 24 24 24 24 24 24 25 26 27 27 28 29 30 31 31 31 33 34 35 36 36 37 36 36 35 35 35 35 34 33 32 31 31 31 31 31 31 30 30 31 30 30 30 29 29 28 28 28
16 14 13 13 13 14 15 16 13 12 13 13 13 13 13 13 14 14 15 16 16 17 18 19 19 19 19 19 20 21 21 21 21 22 22 23 23 23 23 23 23 24 24 25 26 26 27 27 28 29 31 32 32 33 34 35 36 37 38 38 37 37 36 36 36 35 34 34 33 32 32 32 32 32 32 32 32 32 31 31 31 31 30 30 30
13 10 10 11 12 14 16 16 14 13 13 13 13 14 14 14 15 15 16 16 17 18 19 19 19 19 20 20 20 21 21 21 21 22 22 22 23 23 23 23 23 24 25 25 26 26 27 28 28 30 31 32 33 34 34 35 36 37 38 38 38 39 39 38 38 38 36 34 34 34 33 33 33 33 33 33 33 33 33 33 32 33 32 31 31
12 11 12 12 13 14 15 14 15 15 14 14 15 15 16 17 17 18 18 18 19 19 20 20 20 20 20 20 21 22 22 22 22 22 23 23 23 23 24 24 25 25 26 26 27 28 28 29 30 31 32 33 34 35 36 36 36 37 37 38 38 39 39 40 39 39 39 37 35 35 35 34 34 34 33 33 34 34 35 34 34 34 34 33 32
15 14 14 15 15 15 15 15 16 16 15 15 16 16 17 17 18 19 19 19 19 20 20 21 21 21 20 20 21 22 22 22 23 23 23 24 24 25 25 26 27 28 28 28 29 30 31 31 32 33 34 35 35 36 37 37 37 37 38 38 38 38 39 40 40 40 40 40 38 37 36 36 36 36 35 35 35 35 36 36 36 36 35 35 34
17 16 16 16 17 16 16 16 17 16 16 16 16 16 16 16 18 19 19 20 20 20 20 21 21 20 20 20 20 21 22 23 24 24 25 25 25 26 27 28 29 30 31 31 32 32 33 34 34 35 36 36 37 37 38 38 39 39 39 39 39 39 39 39 41 41 41 41 40 39 37 38 38 38 38 38 37 37 37 38 38 38 37 36 36
15 15 16 17 17 17 17 17 17 17 17 17 17 17 17 17 18 19 20 20 19 20 20 20 20 20 20 21 21 22 22 23 24 25 25 26 27 27 29 30 31 32 33 34 34 35 35 36 36 37 37 38 38 39 39 40 40 40 41 41 40 41 40 40 40 41 42 42 41 40 39 39 39 39 39 40 40 39 39 39 39 39 39 38 37
Wind_Direction
317 321 325 326 331 333 336 337 339 339 330 315 315 314 318 325 334 342 346 353 358 2 4 5 5 4 2 0 1 359 358 355 355 355 356 356 355 352 349 352 352 355 0 1 0 5 7 9 10 10 13 13 12 15 22 25 23 27 23 16 6 0 354 351 347 350 350 346 338 326 318 312 313 316 318 323 326 328 330 332 332 331 329 326 324
311 315 319 321 325 329 333 334 336 337 328 311 311 308 312 321 330 339 344 351 357 2 4 4 5 4 1 358 359 358 357 355 354 353 353 353 351 348 344 347 351 352 356 1 358 359 5 7 8 8 11 11 9 7 10 15 13 17 14 11 3 356 348 342 339 334 335 334 327 322 314 309 311 315 321 325 329 333 334 335 333 331 330 327 324
306 309 313 316 319 325 329 331 333 334 327 309 306 304 307 317 327 336 341 348 355 1 2 2 4 3 1 356 356 356 356 355 353 352 351 350 349 347 343 343 346 350 355 -0 356 356 2 5 7 6 7 8 8 2 357 357 359 6 5 4 356 349 341 336 331 324 327 326 319 316 310 308 308 315 319 325 330 333 335 334 332 330 328 326 324
301 304 308 311 313 319 324 328 330 331 325 307 302 301 303 314 325 334 339 345 351 358 0 0 2 2 359 355 354 354 354 354 353 350 348 347 346 346 343 340 338 343 352 355 353 355 1 4 7 5 3 5 4 1 352 342 341 345 348 355 351 340 334 329 322 321 322 316 310 309 307 306 305 309 315 318 323 327 330 328 327 326 324 322 324
297 299 303 306 309 314 320 324 327 328 322 305 298 298 299 311 323 332 337 341 347 353 358 358 359 359 357 354 352 352 352 352 351 348 345 343 343 342 341 339 335 338 345 350 352 355 360 3 5 3 1 359 358 358 350 340 332 328 330 337 345 336 327 323 318 320 315 308 306 308 308 307 307 308 309 312 316 323 325 326 324 322 321 322 325
292 294 299 302 304 310 316 321 324 325 319 304 295 295 296 307 319 329 335 338 346 350 354 356 355 355 354 352 351 351 350 349 348 346 343 341 339 338 337 336 335 335 340 346 351 353 356 1 3 1 359 355 352 351 346 339 332 327 326 326 330 325 320 314 311 312 308 307 306 308 310 309 310 309 309 310 314 321 324 324 322 322 323 325 329
288 292 296 297 302 307 313 317 321 321 316 302 292 292 293 304 317 327 333 337 344 348 350 352 352 351 351 351 350 349 348 347 346 343 341 339 336 335 335 334 332 332 335 339 345 349 352 357 359 358 357 352 347 342 338 331 328 326 325 324 320 313 308 303 302 304 305 309 311 313 314 313 313 310 310 311 315 319 321 321 322 323 325 329 331
286 290 292 295 300 305 310 314 318 318 311 299 290 290 291 301 315 324 330 335 342 345 347 348 348 347 347 349 349 346 345 346 344 341 338 337 335 333 333 332 331 329 330 334 338 343 347 352 354 355 353 349 344 338 332 322 318 317 316 317 315 310 306 304 303 305 308 309 312 316 315 314 312 310 310 310 313 315 317 320 322 325 328 331 334
286 288 290 294 298 303 308 311 315 314 306 294 286 286 289 299 313 322 327 332 339 342 343 344 345 344 344 347 347 345 343 344 342 339 337 335 333 332 331 330 331 330 328 330 334 336 341 347 349 350 350 346 341 336 331 323 316 311 310 310 310 310 309 309 309 311 312 310 311 311 310 311 309 307 308 310 312 314 317 321 325 329 332 334 336
285 287 288 293 297 302 306 310 312 309 299 288 283 283 286 298 311 318 324 330 336 338 339 340 342 341 341 345 345 343 342 342 341 338 336 334 332 330 329 329 329 330 328 328 332 333 336 342 343 345 348 345 340 336 332 326 320 313 309 307 307 308 308 310 312 313 312 312 312 310 310 310 309 309 310 311 312 315 319 323 327 331 334 335 337
284 285 287 292 297 301 305 308 308 302 291 281 278 280 285 297 309 315 322 328 333 335 336 338 339 339 340 343 344 342 342 341 339 338 337 334 331 329 329 329 329 330 331 330 332 333 335 339 342 342 344 343 339 336 332 327 322 316 309 305 303 303 305 307 309 311 311 312 312 310 310 310 311 312 311 311 312 316 319 323 326 329 332 334 338
281 283 287 291 296 300 303 306 302 292 280 274 274 277 285 296 305 313 320 326 331 332 333 337 337 337 338 341 343 342 341 339 338 337 337 335 331 329 330 332 333 334 337 337 336 336 338 339 339 340 342 341 337 334 331 327 323 318 312 306 302 300 302 305 308 310 310 312 310 308 309 310 310 310 311 312 313 316 319 322 325 327 331 335 341
279 282 287 291 294 298 302 302 294 279 270 268 270 275 284 292 302 311 319 325 328 330 331 335 335 335 338 342 342 340 339 338 337 337 337 335 331 330 330 333 336 339 341 342 341 340 338 337 338 339 342 339 335 332 328 326 323 319 315 309 305 301 301 303 307 309 309 309 307 306 307 307 307 308 311 314 316 317 319 321 322 324 327 333 340
278 282 286 289 293 297 299 296 283 268 264 263 267 274 280 289 301 311 318 324 326 328 330 333 333 334 338 341 339 337 338 338 337 337 337 335 331 331 331 332 335 337 338 340 342 340 338 341 342 342 343 340 335 330 326 325 322 320 316 312 307 303 302 302 303 305 306 305 303 304 304 305 307 309 312 316 319 319 319 318 319 320 321 326 332
278 281 284 288 292 295 294 286 271 262 259 259 266 272 278 288 301 310 317 323 323 325 328 330 332 335 338 337 337 337 338 338 336 337 337 335 333 333 333 333 332 331 331 334 338 340 341 343 345 346 344 338 334 329 324 323 321 319 316 313 309 305 302 300 300 300 302 302 302 303 304 307 309 311 314 318 320 320 319 317 316 315 315 318 323
277 280 283 288 290 291 286 273 262 257 254 258 266 271 278 289 301 311 316 319 319 322 326 329 333 334 335 334 335 337 338 338 337 337 337 335 334 334 335 333 329 326 325 328 333 338 340 341 343 344 341 334 332 329 323 320 318 316 313 310 307 304 301 299 299 298 299 300 300 303 306 310 312 314 316 319 321 320 319 317 317 314 313 313 315
276 280 283 285 286 284 273 261 255 249 249 256 263 269 277 289 302 309 312 314 316 322 326 329 333 332 332 332 333 335 337 337 337 337 336 336 335 335 335 333 329 325 324 326 330 334 337 338 340 341 339 334 332 329 323 319 316 313 309 304 302 299 298 298 299 300 302 302 303 305 308 311 312 314 316 318 321 320 318 317 315 314 312 310 311
277 279 280 279 279 273 260 253 248 241 243 251 258 267 277 289 299 304 307 308 316 323 325 328 329 329 330 328 329 332 334 335 336 337 335 335 334 333 332 330 327 325 324 325 328 331 334 335 337 339 338 336 333 330 325 317 313 310 306 302 299 297 296 296 298 300 302 303 305 307 309 310 311 312 313 315 317 317 315 313 311 310 310 308 308
276 276 274 273 271 261 252 246 240 236 240 249 257 266 276 286 293 298 300 307 317 322 322 326 327 327 327 325 326 327 330 333 335 334 333 332 331 328 325 324 325 325 325 325 327 329 331 334 335 337 336 335 333 330 326 320 314 309 305 302 299 298 298 298 298 300 300 300 303 305 306 308 309 309 310 311 312 311 310 309 307 307 307 306 306
273 272 270 268 262 253 247 241 235 234 238 247 256 264 272 281 286 290 295 307 316 318 320 324 326 325 324 324 325 324 327 331 332 332 329 327 326 323 320 323 327 328 328 327 327 328 330 332 334 334 334 334 334 331 329 323 316 309 304 301 299 298 297 297 298 300 300 300 302 302 303 305 306 307 307 307 305 306 307 308 308 308 306 304 305
272 271 268 262 253 248 244 237 232 231 235 243 251 260 268 274 277 283 292 305 312 314 319 324 324 322 323 324 323 323 324 327 329 328 325 324 323 322 323 328 334 335 335 333 331 330 331 333 335 334 335 336 335 334 331 324 318 311 305 301 299 299 297 296 297 299 300 301 301 299 300 302 303 304 304 302 300 301 304 308 311 310 307 303 302
270 266 260 251 246 243 239 233 230 229 231 240 247 256 262 266 270 277 288 301 307 311 318 323 322 320 322 322 320 320 318 321 323 325 325 323 322 324 329 335 340 342 341 340 337 334 334 335 336 337 337 336 335 335 330 324 321 315 309 303 299 299 297 296 297 298 298 299 299 297 298 300 300 301 301 300 299 298 300 306 310 311 309 304 300
262 254 247 240 239 237 234 230 228 227 229 236 245 252 256 260 265 272 285 297 302 307 316 320 320 320 321 318 317 316 314 316 320 327 328 323 325 328 335 338 339 342 342 341 339 336 336 337 337 338 337 336 335 334 331 328 327 323 317 310 303 300 299 299 301 301 299 299 298 296 297 299 300 301 300 300 299 297 298 303 308 311 310 306 300
252 245 238 235 236 233 230 229 227 227 229 234 242 248 250 254 259 267 281 291 294 303 314 320 322 321 320 316 314 311 310 314 321 328 323 319 325 326 332 333 333 337 338 337 338 338 337 337 338 337 337 338 338 336 335 332 332 332 328 323 315 307 303 302 302 301 300 300 299 296 296 297 298 300 300 299 299 298 298 301 306 311 311 307 303
246 241 237 236 235 231 228 228 228 228 229 234 240 244 246 249 254 263 276 283 288 300 313 320 323 321 319 314 310 308 308 312 322 327 321 320 325 326 327 328 329 333 333 332 335 336 336 338 338 338 337 338 340 339 337 335 334 334 333 331 328 320 311 307 304 302 301 301 299 295 294 297 300 302 301 300 299 298 298 299 303 307 308 307 305
243 240 239 238 236 231 228 228 229 230 231 235 238 241 243 247 252 260 271 276 280 292 310 320 322 320 317 312 308 307 307 311 317 320 319 319 320 326 328 326 331 335 332 329 330 332 334 337 337 337 336 334 336 337 337 336 335 334 334 333 333 331 326 323 318 314 311 310 307 300 296 297 298 302 303 302 300 298 297 298 299 301 303 304 303
243 241 240 239 237 233 230 230 229 231 232 234 237 239 242 245 249 257 265 267 269 281 303 316 320 320 317 313 309 306 309 313 314 314 315 314 314 319 323 326 334 336 331 326 326 327 329 331 331 331 331 329 330 332 331 330 329 329 329 328 328 327 325 325 322 320 319 318 318 313 306 303 300 301 302 302 299 296 295 295 296 297 298 298 298
242 240 239 238 238 236 233 231 230 231 233 234 236 237 241 243 245 253 259 259 261 270 294 312 320 322 319 315 310 308 311 316 318 317 316 317 317 319 323 328 333 333 330 327 325 325 325 324 324 324 324 325 326 326 324 323 323 322 322 321 320 320 319 319 318 317 317 315 316 314 311 310 309 306 304 303 300 297 295 293 292 292 293 293 294
241 240 238 238 239 238 235 233 233 233 234 235 235 237 239 240 242 248 252 254 256 264 285 306 323 326 323 319 314 313 315 318 320 320 319 320 322 322 326 330 333 334 333 330 328 327 325 323 322 321 320 322 322 322 322 321 321 320 320 320 319 319 318 318 318 317 317 315 315 313 310 310 310 309 307 305 303 301 299 296 293 291 290 289 290
240 239 239 239 240 238 236 234 234 234 234 234 234 236 237 238 240 244 246 248 253 260 276 296 319 329 331 327 322 320 320 323 322 322 323 324 326 326 328 330 332 333 332 330 329 328 326 324 322 320 321 321 320 321 323 323 322 321 320 321 320 319 319 319 319 319 319 317 316 316 313 310 309 308 308 307 306 305 303 300 297 294 291 289 288
240 239 239 240 240 238 236 235 235 235 234 234 234 235 235 236 239 242 244 246 251 258 270 288 310 328 335 334 330 327 325 325 324 324 326 327 328 328 329 330 330 330 330 328 327 325 324 323 321 320 321 319 319 320 321 321 320 319 318 319 319 316 317 320 318 318 320 319 316 315 314 312 310 309 308 307 306 306 305 303 301 299 295 291 287
240 238 237 238 239 238 238 237 237 236 235 234 234 235 234 234 238 241 242 244 249 254 264 279 298 316 329 334 334 331 329 327 325 325 326 327 327 328 329 328 328 326 326 325 322 321 320 320 319 318 318 316 316 316 316 316 315 316 315 317 318 316 317 318 316 316 318 317 316 314 311 310 311 310 310 309 307 305 304 304 303 303 300 296 290
240 237 236 237 239 240 240 240 239 238 236 234 235 235 234 233 236 238 239 241 246 251 258 270 284 298 313 323 329 330 329 327 324 323 322 323 324 325 325 324 324 323 322 322 320 320 319 317 318 317 316 315 313 312 312 312 311 311 312 313 316 316 315 314 313 314 313 313 313 313 310 308 308 309 310 311 310 307 305 304 302 301 301 301 297
239 237 235 236 239 241 241 241 241 239 236 234 234 233 232 232 233 234 236 241 245 250 255 263 273 284 296 305 315 320 323 323 321 320 319 320 321 322 322 322 323 323 322 322 321 320 319 318 317 317 316 314 312 311 311 310 309 308 308 309 311 312 312 311 311 310 310 310 311 311 311 308 307 307 309 310 311 310 308 306 304 302 301 301 301
239 237 236 236 238 240 242 242 241 240 237 234 231 228 227 228 231 232 235 241 246 249 253 259 267 276 285 292 299 305 310 314 314 316 315 316 317 317 319 320 320 321 321 321 320 319 318 317 317 316 314 313 312 312 311 309 308 307 306 307 308 309 309 309 309 309 309 309 309 310 310 308 308 309 308 308 308 308 307 306 306 305 304 302 301
240 237 236 236 238 239 240 242 244 243 240 236 231 228 225 223 227 233 235 240 245 249 252 257 264 271 278 285 289 293 297 301 304 306 307 308 311 312 313 315 316 316 317 317 318 317 318 317 316 316 314 313 312 312 313 311 309 307 306 306 306 307 307 306 306 307 307 307 308 308 307 307 308 307 307 306 306 305 305 305 305 306 305 304 302
242 240 240 238 239 239 238 239 245 247 242 234 228 227 225 218 224 233 237 242 246 249 254 258 264 269 273 279 282 286 289 291 294 296 299 303 305 307 308 310 311 312 313 314 315 316 316 316 316 315 314 313 312 312 312 311 309 308 307 306 305 306 306 305 305 304 305 306 306 306 306 306 306 305 305 305 305 305 306 306 306 306 306 305 303
243 243 243 239 237 237 238 238 240 242 237 230 224 223 229 229 231 237 240 244 247 250 255 260 264 268 271 274 277 281 283 286 289 291 295 298 300 301 302 305 306 307 309 310 311 312 313 314 314 314 314 313 312 312 311 310 309 308 307 307 306 307 307 307 306 306 306 306 307 307 306 305 304 305 305 305 306 306 307 308 307 306 307 305 302
242 240 241 238 235 234 237 234 229 231 228 225 224 224 231 237 238 240 243 246 248 250 255 261 265 268 270 272 275 278 281 285 288 290 293 295 296 296 297 299 301 303 305 306 307 308 308 309 310 311 311 311 311 311 310 309 309 308 308 307 307 308 308 308 308 307 307 307 308 308 307 306 305 304 304 304 305 305 306 307 306 306 306 304 302
239 236 235 232 231 229 229 225 219 225 227 226 228 228 231 236 239 242 245 246 248 251 256 261 265 268 270 273 276 279 283 286 288 290 291 292 294 295 296 297 299 300 302 303 304 304 304 304 304 306 307 308 309 309 309 308 308 308 307 307 307 306 306 306 306 306 306 306 307 307 307 307 306 305 304 304 304 305 306 306 307 306 306 304 303
235 228 226 225 221 216 218 216 215 222 225 229 233 233 235 238 240 242 244 247 249 254 259 263 267 270 273 276 278 281 284 287 289 290 292 293 294 295 295 295 295 295 296 297 299 300 300 300 301 302 303 305 306 306 306 306 305 305 305 305 305 304 303 303 304 303 303 303 304 304 305 305 305 305 304 303 302 302 304 305 305 305 305 304 303
229 220 217 218 212 211 217 216 218 223 228 236 239 237 237 240 243 244 247 251 254 259 264 267 271 273 275 277 279 283 286 289 291 292 293 293 293 292 292 292 291 291 292 294 295 297 298 299 300 301 301 302 302 303 303 302 302 302 302 302 303 302 302 301 302 302 302 303 303 303 303 302 302 303 302 301 300 300 300 301 301 301 302 303 302
224 219 217 217 216 226 231 227 228 234 242 250 253 249 246 246 248 251 254 257 260 263 266 269 271 273 275 278 282 286 288 290 292 293 293 293 293 292 292 293 293 294 295 296 297 297 298 298 298 299 299 300 300 300 299 299 299 299 298 299 299 300 300 300 300 301 302 303 302 302 302 302 302 301 301 301 301 300 300 299 299 299 299 299 299
227 221 222 223 226 227 222 228 238 251 260 262 259 258 257 255 255 258 259 261 263 265 267 270 272 275 278 281 285 287 289 290 292 293 294 294 294 294 294 295 297 299 300 301 302 301 300 300 298 298 298 299 299 298 297 297 297 296 296 296 296 297 297 297 298 299 301 301 301 301 301 301 301 301 301 301 301 301 300 300 299 298 298 296 296
234 231 229 226 232 235 233 243 254 264 268 266 263 262 262 262 263 263 264 266 268 269 271 273 276 279 281 284 286 288 290 292 294 295 295 296 297 298 299 300 301 303 304 305 306 305 305 304 303 302 300 300 300 300 298 297 296 295 294 294 294 294 294 294 294 296 297 298 298 298 298 298 299 299 300 299 299 299 298 298 297 297 296 295 295
241 236 231 232 244 254 259 264 270 272 269 265 264 264 266 268 270 271 272 272 272 273 274 276 278 281 283 285 287 288 290 292 293 294 294 296 297 299 301 303 304 305 306 306 306 307 307 306 306 304 303 302 301 300 299 298 298 296 295 294 293 291 290 290 290 290 291 292 293 294 294 294 295 296 296 297 297 296 296 296 295 295 294 293 293
230 227 239 256 262 265 269 272 275 273 269 267 267 269 271 273 274 274 274 274 274 275 276 278 280 282 283 283 284 286 288 290 291 291 293 295 297 300 301 303 304 304 305 305 306 306 306 306 305 304 304 302 301 301 300 298 298 297 296 295 294 293 290 289 288 287 286 286 288 289 289 290 291 291 292 293 293 293 293 293 293 293 292 291 290
227 238 257 267 268 269 272 273 274 272 271 272 272 274 274 274 274 273 273 273 274 275 276 278 279 280 281 281 282 284 286 287 289 290 292 295 298 300 302 303 303 303 304 305 306 306 306 306 306 306 306 305 304 302 301 300 298 298 297 296 295 294 292 290 289 287 285 284 284 284 285 286 287 286 287 289 290 290 291 291 291 290 289 288 287
246 253 261 261 261 267 271 272 273 272 273 272 271 272 271 271 272 272 272 273 274 275 277 277 278 278 278 279 281 283 286 288 290 291 294 296 299 300 302 303 304 304 305 306 306 307 307 307 308 308 308 307 306 304 303 301 299 298 297 296 295 294 293 292 290 288 287 285 283 282 283 284 284 284 285 285 286 288 289 289 288 287 286 286 286
253 253 254 253 255 261 265 269 272 272 271 269 269 268 268 270 271 272 273 274 275 276 278 279 279 280 279 279 280 283 285 288 290 293 296 298 300 301 303 304 305 306 307 307 308 307 307 308 309 309 309 308 307 305 304 303 301 300 298 297 295 294 292 291 290 289 288 286 284 283 282 281 281 282 284 284 285 286 286 287 287 286 285 285 285
244 243 244 248 252 255 260 263 266 268 268 267 267 266 268 270 272 274 274 275 276 278 281 282 283 283 283 282 283 283 285 288 291 294 297 299 301 302 303 303 304 305 306 307 307 307 307 308 308 309 309 308 307 306 305 304 303 302 300 299 297 295 293 292 290 289 288 287 285 283 282 280 279 280 281 283 285 285 285 285 285 285 285 285 284
Height
5886 5886 5886 5885 5885 5884 5883 5882 5882 5880 5879 5878 5877 5876 5875 5874 5873 5872 5871 5871 5869 5868 5866 5865 5864 5863 5863 5862 5861 5860 5859 5857 5856 5855 5854 5853 5852 5851 5850 5850 5849 5848 5847 5846 5845 5844 5843 5841 5841 5840 5839 5838 5838 5837 5837 5837 5836 5836 5835 5835 5834 5834 5834 5834 5834 5834 5834 5834 5834 5834 5835 5834 5834 5834 5834 5834 5834 5834 5834 5834 5834 5834 5834 5834 5833
5886 5886 5885 5884 5884 5883 5883 5882 5881 5880 5879 5878 5877 5876 5875 5874 5873 5872 5871 5871 5869 5868 5866 5865 5864 5863 5863 5862 5861 5860 5859 5858 5857 5856 5855 5854 5853 5852 5851 5850 5849 5848 5847 5846 5846 5844 5843 5842 5841 5840 5839 5839 5839 5838 5838 5837 5837 5836 5836 5835 5835 5835 5835 5835 5835 5834 5834 5834 5835 5835 5835 5835 5834 5834 5834 5834 5834 5834 5834 5834 5833 5833 5833 5833 5833
5886 5885 5884 5884 5883 5883 5882 5881 5881 5879 5879 5878 5877 5876 5875 5874 5873 5873 5871 5870 5869 5868 5867 5866 5865 5864 5863 5862 5862 5861 5860 5859 5857 5856 5855 5854 5853 5852 5851 5850 5849 5848 5847 5846 5846 5845 5843 5842 5841 5840 5840 5840 5839 5839 5838 5838 5838 5837 5837 5836 5836 5835 5835 5835 5835 5835 5835 5835 5835 5835 5835 5835 5834 5834 5834 5834 5834 5833 5833 5833 5833 5833 5833 5832 5832
5886 5885 5884 5883 5882 5882 5882 5881 5880 5879 5878 5877 5877 5876 5875 5874 5873 5872 5871 5870 5869 5868 5867 5866 5865 5864 5863 5862 5862 5861 5860 5859 5858 5856 5855 5854 5853 5852 5851 5850 5849 5849 5848 5847 5846 5845 5844 5843 5842 5841 5840 5840 5840 5839 5839 5839 5838 5838 5837 5837 5836 5836 5836 5835 5835 5835 5835 5835 5835 5835 5835 5835 5835 5834 5834 5834 5833 5833 5833 5833 5833 5833 5832 5832 5832
5885 5884 5883 5882 5882 5881 5881 5880 5879 5878 5878 5877 5876 5876 5875 5874 5873 5872 5872 5870 5869 5868 5867 5866 5865 5864 5864 5863 5862 5861 5860 5859 5858 5857 5856 5854 5853 5852 5851 5850 5850 5849 5848 5847 5846 5845 5844 5843 5842 5841 5841 5840 5840 5840 5840 5839 5839 5839 5838 5838 5837 5837 5836 5836 5836 5835 5835 5835 5835 5835 5835 5835 5835 5834 5834 5834 5833 5833 5833 5833 5833 5833 5832 5832 5832
5884 5883 5883 5882 5881 5881 5880 5880 5879 5878 5877 5876 5876 5875 5874 5874 5873 5873 5872 5870 5869 5868 5867 5866 5865 5864 5864 5863 5862 5861 5860 5859 5858 5857 5856 5854 5853 5852 5851 5851 5850 5849 5848 5847 5846 5845 5844 5843 5842 5841 5841 5841 5840 5840 5840 5840 5839 5839 5839 5838 5838 5837 5837 5836 5836 5836 5835 5835 5835 5835 5835 5835 5834 5834 5834 5834 5834 5833 5833 5833 5833 5833 5832 5832 5832
5883 5882 5882 5881 5880 5880 5879 5879 5878 5877 5876 5876 5875 5875 5874 5873 5873 5872 5871 5870 5869 5868 5867 5866 5865 5865 5864 5863 5862 5861 5860 5859 5858 5857 5856 5854 5853 5852 5851 5850 5850 5849 5848 5847 5846 5845 5844 5843 5842 5842 5841 5841 5840 5840 5840 5840 5840 5839 5839 5839 5838 5838 5837 5837 5836 5836 5836 5835 5835 5835 5835 5835 5835 5834 5834 5834 5834 5833 5833 5833 5833 5833 5832 5832 5832
5882 5881 5881 5880 5879 5879 5878 5878 5877 5876 5875 5875 5874 5874 5873 5873 5872 5872 5871 5870 5869 5868 5867 5866 5865 5865 5864 5863 5862 5862 5860 5859 5858 5857 5856 5854 5853 5852 5851 5850 5850 5849 5848 5847 5846 5845 5844 5843 5842 5842 5841 5841 5841 5840 5840 5840 5840 5839 5839 5839 5838 5838 5838 5837 5837 5836 5836 5836 5835 5835 5835 5835 5835 5834 5834 5834 5834 5833 5833 5833 5833 5832 5832 5832 5832
5881 5880 5879 5879 5878 5878 5877 5877 5876 5876 5875 5874 5874 5873 5873 5872 5872 5872 5871 5870 5869 5868 5867 5866 5865 5865 5864 5863 5862 5861 5860 5859 5858 5857 5856 5854 5853 5852 5851 5850 5849 5848 5848 5847 5846 5845 5844 5843 5842 5842 5841 5841 5841 5840 5840 5840 5839 5839 5839 5839 5838 5838 5838 5837 5837 5837 5836 5836 5835 5835 5835 5834 5834 5834 5834 5833 5833 5833 5832 5832 5832 5832 5832 5831 5831
5879 5879 5878 5878 5877 5877 5876 5876 5875 5875 5874 5873 5873 5873 5872 5872 5872 5871 5870 5870 5869 5867 5866 5866 5865 5864 5864 5863 5862 5861 5860 5859 5858 5857 5855 5854 5852 5851 5850 5849 5849 5848 5847 5847 5846 5845 5844 5843 5843 5842 5841 5841 5841 5840 5840 5840 5839 5839 5839 5839 5838 5838 5837 5837 5837 5836 5836 5836 5835 5835 5835 5834 5834 5833 5833 5833 5833 5832 5832 5832 5831 5831 5831 5830 5830
5878 5878 5877 5877 5876 5876 5875 5875 5874 5874 5873 5872 5872 5872 5871 5871 5871 5871 5870 5869 5868 5867 5866 5865 5865 5864 5864 5863 5862 5861 5860 5859 5858 5856 5855 5853 5852 5851 5850 5849 5848 5847 5847 5846 5845 5845 5844 5843 5843 5842 5841 5841 5840 5840 5840 5839 5839 5839 5839 5838 5838 5838 5837 5837 5836 5836 5836 5835 5835 5835 5834 5834 5833 5833 5833 5832 5832 5832 5831 5831 5831 5830 5830 5830 5830
5877 5876 5876 5876 5875 5875 5874 5874 5873 5872 5872 5872 5871 5871 5871 5871 5870 5870 5870 5869 5868 5867 5866 5865 5865 5864 5864 5863 5862 5861 5860 5858 5857 5856 5854 5853 5851 5850 5849 5848 5847 5846 5846 5846 5845 5844 5844 5843 5842 5842 5841 5840 5840 5840 5839 5839 5839 5839 5838 5838 5838 5837 5837 5836 5836 5836 5835 5835 5835 5834 5834 5833 5833 5833 5832 5832 5831 5831 5831 5830 5830 5830 5829 5829 5829
5875 5875 5875 5875 5874 5874 5873 5873 5872 5871 5871 5871 5871 5871 5871 5870 5870 5869 5869 5868 5867 5867 5866 5865 5865 5864 5864 5863 5862 5860 5859 5858 5856 5855 5854 5852 5851 5849 5848 5847 5846 5846 5845 5845 5845 5844 5844 5843 5842 5841 5841 5840 5840 5840 5839 5839 5838 5838 5838 5838 5837 5837 5837 5836 5836 5835 5835 5834 5834 5834 5833 5833 5832 5832 5832 5831 5831 5830 5830 5829 5829 5829 5829 5828 5828
5873 5874 5874 5873 5873 5873 5872 5871 5871 5870 5870 5870 5870 5870 5870 5870 5869 5869 5869 5868 5867 5866 5865 5865 5864 5864 5863 5862 5861 5860 5858 5857 5856 5854 5853 5852 5850 5849 5848 5847 5846 5845 5845 5845 5845 5844 5843 5842 5842 5841 5840 5840 5840 5839 5839 5839 5838 5838 5837 5837 5837 5837 5836 5836 5835 5835 5834 5834 5833 5833 5833 5832 5832 5831 5831 5831 5830 5830 5829 5829 5829 5828 5828 5828 5828
5872 5873 5872 5872 5872 5871 5871 5870 5870 5870 5870 5870 5870 5870 5869 5869 5869 5868 5868 5867 5866 5866 5865 5865 5864 5863 5862 5861 5860 5859 5858 5856 5855 5854 5853 5851 5850 5849 5847 5846 5846 5845 5845 5844 5844 5844 5843 5842 5841 5841 5840 5840 5839 5839 5839 5838 5838 5837 5837 5837 5837 5836 5836 5835 5835 5835 5834 5833 5833 5833 5832 5832 5831 5831 5831 5830 5830 5830 5829 5829 5829 5828 5828 5828 5827
5871 5871 5871 5871 5870 5870 5869 5869 5869 5869 5869 5869 5869 5869 5869 5869 5868 5868 5867 5867 5866 5866 5865 5864 5863 5863 5861 5860 5859 5858 5857 5855 5854 5853 5852 5851 5849 5848 5847 5846 5846 5845 5844 5844 5844 5843 5842 5841 5841 5840 5840 5839 5839 5839 5838 5838 5837 5837 5837 5836 5836 5836 5835 5835 5835 5834 5834 5833 5833 5832 5832 5831 5831 5831 5830 5830 5830 5830 5829 5829 5828 5828 5827 5827 5827
5869 5869 5869 5869 5869 5868 5868 5868 5868 5868 5868 5868 5868 5868 5868 5868 5868 5867 5867 5866 5865 5865 5864 5863 5863 5862 5861 5859 5858 5857 5856 5855 5853 5852 5851 5850 5849 5848 5847 5847 5846 5845 5844 5843 5843 5842 5842 5841 5840 5840 5839 5839 5839 5838 5838 5837 5837 5836 5836 5835 5835 5835 5835 5834 5834 5834 5833 5833 5832 5832 5832 5831 5831 5830 5830 5830 5830 5829 5829 5828 5828 5827 5827 5826 5826
5867 5867 5867 5867 5867 5867 5866 5867 5867 5867 5867 5867 5867 5867 5867 5867 5867 5867 5866 5865 5865 5864 5863 5862 5862 5861 5860 5858 5857 5856 5855 5854 5853 5851 5850 5849 5848 5848 5847 5846 5846 5844 5843 5842 5842 5841 5841 5840 5839 5839 5838 5838 5838 5837 5837 5836 5836 5835 5835 5835 5834 5834 5834 5833 5833 5833 5832 5832 5832 5831 5831 5831 5830 5830 5830 5829 5829 5828 5828 5827 5826 5826 5825 5825 5825
5865 5865 5865 5865 5865 5865 5865 5865 5866 5866 5866 5866 5866 5866 5866 5866 5866 5866 5865 5865 5864 5863 5862 5862 5861 5860 5859 5858 5856 5855 5854 5853 5852 5851 5850 5849 5848 5847 5846 5846 5845 5844 5843 5842 5841 5840 5840 5840 5839 5838 5838 5837 5837 5837 5836 5836 5835 5835 5834 5834 5833 5833 5833 5833 5832 5832 5831 5831 5831 5831 5830 5830 5830 5830 5829 5828 5828 5827 5826 5826 5825 5825 5824 5824 5823
5862 5862 5863 5863 5863 5864 5864 5864 5865 5865 5865 5865 5865 5865 5865 5865 5865 5865 5864 5864 5863 5862 5862 5861 5860 5859 5858 5857 5855 5854 5853 5853 5851 5850 5849 5848 5847 5846 5846 5845 5844 5843 5842 5841 5840 5839 5839 5839 5839 5838 5837 5836 5836 5836 5836 5835 5834 5834 5833 5833 5833 5832 5832 5832 5831 5831 5831 5830 5830 5829 5829 5829 5829 5828 5828 5827 5827 5826 5825 5825 5824 5824 5823 5823 5822
5860 5860 5861 5861 5862 5862 5862 5863 5863 5864 5864 5864 5864 5864 5864 5864 5864 5864 5863 5863 5862 5861 5861 5860 5859 5857 5856 5855 5854 5853 5852 5852 5851 5850 5849 5848 5847 5846 5845 5844 5844 5843 5842 5840 5839 5838 5838 5838 5838 5837 5837 5836 5836 5835 5835 5834 5834 5833 5833 5832 5832 5831 5831 5831 5830 5830 5830 5829 5829 5828 5828 5828 5827 5827 5827 5826 5825 5825 5824 5824 5823 5823 5822 5822 5821
5859 5859 5859 5860 5860 5861 5861 5862 5862 5862 5863 5863 5863 5863 5863 5863 5863 5863 5862 5862 5861 5860 5860 5859 5858 5856 5855 5854 5853 5853 5851 5851 5850 5849 5849 5848 5847 5846 5845 5844 5843 5842 5841 5840 5839 5838 5837 5837 5837 5837 5836 5836 5835 5835 5834 5833 5833 5832 5832 5831 5831 5830 5830 5830 5829 5830 5829 5829 5828 5827 5827 5826 5826 5826 5825 5825 5824 5824 5823 5823 5822 5822 5821 5821 5820
5857 5858 5858 5858 5859 5859 5860 5860 5861 5861 5861 5862 5862 5861 5861 5861 5861 5861 5861 5861 5860 5860 5859 5858 5857 5855 5854 5853 5852 5852 5850 5850 5849 5849 5848 5847 5847 5846 5845 5844 5843 5842 5841 5840 5839 5838 5837 5836 5836 5836 5835 5835 5835 5834 5834 5833 5832 5832 5831 5831 5830 5830 5829 5829 5828 5828 5828 5828 5828 5827 5826 5825 5825 5824 5824 5824 5823 5823 5822 5822 5821 5821 5820 5820 5819
5856 5856 5856 5857 5857 5858 5858 5859 5859 5860 5860 5860 5860 5860 5860 5860 5860 5860 5860 5860 5859 5859 5858 5857 5856 5854 5853 5852 5851 5851 5849 5849 5849 5849 5848 5847 5847 5846 5845 5844 5843 5842 5841 5840 5839 5838 5837 5836 5836 5835 5834 5834 5834 5834 5833 5833 5832 5831 5830 5830 5830 5829 5829 5828 5828 5827 5826 5826 5826 5825 5825 5824 5823 5823 5823 5822 5822 5822 5821 5821 5820 5820 5819 5819 5818
5855 5855 5855 5855 5856 5856 5857 5857 5858 5858 5859 5859 5859 5859 5858 5859 5859 5859 5859 5858 5858 5858 5857 5856 5854 5853 5852 5851 5851 5850 5849 5848 5848 5847 5847 5846 5846 5846 5845 5844 5843 5842 5841 5840 5839 5838 5837 5836 5835 5835 5834 5833 5833 5833 5832 5832 5831 5831 5830 5829 5829 5829 5828 5828 5827 5826 5825 5825 5825 5824 5823 5823 5822 5822 5821 5821 5821 5820 5820 5819 5819 5818 5818 5817 5817
5853 5853 5853 5854 5854 5855 5856 5856 5857 5857 5857 5857 5857 5857 5857 5857 5857 5857 5858 5857 5857 5857 5856 5855 5854 5852 5851 5851 5850 5849 5848 5848 5847 5847 5846 5846 5845 5845 5844 5844 5843 5841 5840 5840 5839 5838 5837 5836 5835 5835 5834 5833 5833 5832 5831 5831 5830 5830 5829 5829 5828 5828 5827 5827 5826 5825 5825 5824 5824 5823 5822 5822 5820 5820 5820 5819 5819 5819 5818 5818 5818 5817 5816 5816 5815
5851 5852 5852 5853 5853 5854 5854 5855 5855 5856 5856 5856 5856 5856 5856 5856 5856 5856 5856 5856 5856 5856 5855 5854 5853 5852 5851 5850 5849 5848 5848 5847 5847 5847 5846 5845 5845 5844 5843 5843 5842 5841 5840 5840 5839 5838 5837 5836 5835 5835 5834 5833 5832 5831 5831 5830 5830 5829 5828 5828 5827 5826 5826 5825 5825 5824 5823 5823 5823 5822 5821 5820 5819 5819 5818 5818 5817 5817 5817 5816 5816 5815 5814 5814 5813
5850 5850 5851 5852 5852 5853 5853 5854 5854 5854 5854 5854 5854 5855 5855 5855 5855 5855 5855 5855 5855 5855 5854 5853 5852 5851 5850 5849 5848 5848 5847 5847 5846 5846 5846 5845 5844 5844 5843 5842 5842 5841 5841 5840 5839 5838 5837 5837 5836 5835 5834 5833 5832 5831 5830 5830 5829 5828 5827 5827 5826 5826 5825 5824 5823 5823 5822 5821 5821 5821 5819 5818 5818 5817 5817 5816 5815 5815 5815 5814 5814 5814 5813 5812 5811
5848 5849 5850 5850 5851 5852 5852 5852 5852 5853 5853 5853 5853 5853 5853 5854 5854 5854 5853 5853 5854 5854 5853 5853 5852 5851 5850 5849 5848 5847 5846 5846 5846 5845 5845 5845 5844 5843 5843 5842 5842 5841 5841 5840 5839 5839 5838 5837 5836 5835 5834 5833 5832 5831 5830 5829 5828 5827 5826 5826 5825 5824 5823 5823 5822 5821 5821 5820 5819 5819 5818 5817 5817 5816 5815 5814 5814 5813 5813 5813 5812 5812 5811 5810 5809
5847 5847 5848 5849 5850 5850 5850 5851 5851 5851 5851 5851 5852 5852 5852 5852 5852 5852 5852 5852 5852 5852 5853 5852 5852 5851 5850 5848 5848 5847 5846 5845 5845 5844 5844 5844 5843 5843 5842 5842 5841 5841 5840 5840 5839 5838 5838 5837 5836 5835 5834 5833 5832 5830 5830 5829 5828 5827 5826 5825 5824 5823 5822 5821 5821 5820 5820 5819 5818 5818 5817 5815 5815 5815 5814 5813 5812 5812 5811 5811 5810 5810 5810 5809 5808
5845 5846 5847 5847 5848 5848 5848 5849 5849 5849 5849 5849 5849 5849 5850 5850 5850 5850 5850 5851 5851 5851 5852 5851 5851 5850 5849 5848 5847 5847 5846 5845 5844 5844 5843 5843 5842 5842 5841 5841 5840 5840 5839 5839 5838 5838 5837 5836 5836 5835 5834 5833 5832 5830 5829 5828 5827 5826 5825 5824 5823 5822 5821 5821 5820 5818 5818 5818 5816 5816 5815 5814 5813 5813 5812 5811 5810 5810 5810 5809 5808 5808 5808 5807 5807
5842 5843 5844 5845 5845 5846 5846 5847 5847 5847 5847 5847 5847 5847 5848 5848 5848 5848 5849 5850 5850 5850 5850 5850 5850 5849 5849 5848 5847 5846 5845 5844 5844 5843 5843 5842 5842 5841 5840 5840 5839 5839 5838 5838 5837 5837 5836 5835 5835 5834 5833 5832 5831 5830 5829 5828 5826 5825 5824 5823 5822 5821 5820 5820 5818 5817 5817 5816 5815 5814 5814 5813 5812 5811 5810 5810 5809 5808 5808 5807 5807 5806 5806 5805 5805
5839 5840 5841 5842 5843 5844 5844 5845 5844 5844 5844 5845 5845 5845 5845 5845 5846 5847 5847 5848 5848 5849 5849 5849 5849 5848 5848 5847 5847 5846 5845 5844 5844 5843 5842 5842 5841 5841 5840 5839 5839 5838 5838 5837 5836 5835 5835 5834 5833 5833 5832 5831 5830 5829 5828 5827 5825 5824 5823 5822 5821 5820 5819 5818 5817 5816 5816 5815 5814 5813 5813 5811 5810 5809 5808 5808 5807 5807 5806 5805 5805 5804 5804 5803 5803
5836 5838 5839 5840 5841 5841 5842 5842 5842 5841 5841 5842 5842 5843 5842 5842 5843 5844 5845 5846 5846 5847 5847 5848 5847 5847 5847 5846 5846 5846 5845 5844 5844 5843 5842 5842 5841 5840 5840 5839 5838 5838 5837 5836 5835 5834 5833 5833 5832 5831 5830 5830 5829 5828 5827 5826 5824 5823 5822 5821 5820 5819 5817 5816 5815 5814 5814 5813 5812 5812 5811 5810 5808 5808 5807 5806 5805 5804 5804 5803 5803 5802 5802 5801 5801
5834 5835 5836 5837 5838 5838 5839 5838 5838 5838 5837 5838 5839 5840 5840 5840 5840 5841 5842 5843 5844 5845 5845 5846 5846 5846 5845 5845 5845 5845 5845 5844 5843 5843 5842 5841 5841 5840 5839 5838 5838 5837 5836 5835 5834 5833 5832 5831 5831 5830 5829 5828 5827 5826 5825 5824 5823 5822 5821 5820 5819 5818 5816 5815 5813 5812 5811 5811 5810 5810 5809 5808 5806 5805 5805 5804 5803 5802 5802 5801 5801 5800 5800 5799 5799
5833 5833 5834 5834 5835 5835 5836 5836 5836 5837 5836 5836 5836 5837 5837 5837 5838 5838 5840 5841 5842 5843 5844 5844 5844 5844 5844 5844 5844 5844 5844 5843 5843 5842 5841 5841 5840 5839 5839 5838 5837 5836 5835 5835 5833 5833 5832 5831 5830 5829 5828 5827 5826 5824 5824 5822 5821 5820 5819 5818 5817 5816 5815 5813 5812 5811 5809 5809 5808 5808 5807 5806 5805 5804 5803 5802 5801 5801 5800 5799 5799 5799 5798 5798 5797
5835 5834 5832 5831 5833 5834 5835 5835 5836 5837 5837 5835 5836 5836 5835 5834 5836 5837 5838 5840 5841 5842 5842 5842 5843 5843 5843 5843 5843 5843 5842 5842 5842 5841 5841 5840 5839 5839 5838 5837 5836 5836 5835 5834 5833 5831 5830 5829 5828 5827 5826 5825 5824 5823 5822 5821 5819 5818 5817 5816 5815 5814 5813 5812 5811 5809 5808 5807 5806 5806 5805 5803 5803 5802 5801 5800 5799 5799 5798 5797 5797 5797 5796 5795 5795
5833 5833 5830 5829 5832 5834 5834 5834 5835 5836 5836 5836 5836 5835 5832 5832 5834 5836 5837 5838 5839 5840 5840 5841 5841 5841 5841 5841 5841 5841 5841 5841 5841 5840 5840 5839 5838 5838 5837 5836 5835 5834 5834 5832 5831 5830 5829 5828 5827 5826 5825 5824 5823 5821 5820 5819 5818 5817 5815 5814 5813 5812 5811 5810 5809 5807 5806 5805 5804 5803 5802 5802 5801 5800 5799 5798 5797 5796 5796 5795 5794 5794 5794 5793 5793
5830 5829 5828 5829 5830 5832 5832 5833 5834 5835 5835 5836 5834 5831 5830 5832 5834 5835 5836 5837 5838 5838 5839 5839 5839 5839 5839 5840 5840 5840 5839 5839 5839 5839 5838 5838 5837 5837 5836 5835 5834 5833 5832 5831 5830 5829 5828 5827 5826 5824 5823 5822 5821 5820 5818 5817 5816 5815 5813 5812 5811 5810 5809 5808 5807 5805 5804 5803 5802 5801 5800 5799 5798 5798 5797 5796 5795 5794 5794 5793 5793 5792 5792 5791 5790
5828 5828 5829 5829 5829 5830 5831 5832 5833 5834 5834 5834 5831 5829 5831 5833 5834 5834 5835 5836 5836 5837 5837 5837 5838 5838 5838 5838 5838 5838 5838 5838 5837 5837 5837 5836 5836 5835 5834 5833 5832 5832 5831 5829 5828 5827 5826 5825 5824 5823 5821 5820 5819 5818 5817 5815 5814 5813 5811 5810 5809 5808 5806 5805 5804 5803 5802 5800 5799 5798 5797 5797 5796 5795 5794 5793 5792 5791 5791 5791 5791 5790 5789 5789 5788
5827 5827 5828 5828 5828 5830 5831 5831 5833 5833 5834 5833 5829 5829 5831 5832 5833 5833 5834 5834 5835 5835 5835 5836 5836 5836 5836 5836 5836 5836 5836 5836 5836 5835 5835 5834 5834 5833 5833 5832 5831 5830 5829 5828 5826 5825 5824 5823 5822 5820 5819 5818 5817 5816 5814 5813 5812 5811 5810 5808 5807 5806 5804 5803 5802 5800 5799 5798 5797 5796 5795 5794 5793 5792 5792 5791 5790 5789 5788 5788 5787 5787 5786 5786 5785
5824 5825 5826 5827 5828 5829 5829 5829 5831 5832 5832 5830 5827 5828 5830 5831 5832 5832 5832 5833 5833 5834 5834 5834 5834 5835 5835 5835 5835 5834 5834 5834 5834 5833 5833 5833 5832 5831 5831 5830 5829 5828 5827 5825 5824 5823 5822 5820 5819 5818 5817 5815 5814 5813 5811 5810 5809 5808 5807 5806 5804 5803 5801 5800 5799 5797 5796 5795 5794 5793 5792 5792 5791 5790 5789 5788 5788 5787 5786 5785 5785 5784 5784 5783 5782
5822 5822 5824 5825 5826 5827 5827 5827 5829 5830 5829 5827 5826 5828 5829 5830 5831 5831 5832 5832 5832 5832 5832 5833 5833 5833 5833 5833 5833 5833 5832 5832 5832 5832 5831 5830 5830 5829 5828 5827 5826 5825 5824 5823 5822 5821 5819 5818 5817 5816 5814 5813 5811 5810 5809 5807 5806 5805 5804 5803 5802 5800 5798 5797 5796 5794 5793 5793 5791 5790 5789 5788 5788 5787 5786 5785 5784 5784 5783 5783 5782 5782 5782 5780 5780
5822 5822 5823 5824 5824 5825 5827 5827 5828 5828 5827 5826 5827 5827 5828 5829 5830 5830 5830 5831 5831 5831 5831 5831 5831 5831 5832 5831 5831 5831 5830 5830 5830 5829 5829 5828 5827 5826 5826 5825 5824 5823 5822 5820 5819 5818 5817 5815 5814 5813 5812 5810 5809 5807 5805 5804 5803 5801 5800 5800 5799 5797 5795 5793 5793 5792 5790 5789 5788 5787 5785 5785 5784 5783 5782 5781 5780 5780 5780 5779 5779 5779 5779 5778 5777
5822 5822 5823 5824 5823 5824 5826 5826 5826 5826 5826 5826 5826 5827 5827 5828 5828 5829 5829 5829 5829 5829 5829 5829 5830 5830 5830 5830 5829 5829 5828 5828 5827 5827 5826 5825 5825 5824 5823 5822 5821 5820 5819 5818 5817 5815 5814 5813 5811 5810 5809 5807 5806 5804 5802 5801 5799 5798 5797 5796 5795 5794 5793 5791 5790 5789 5788 5786 5785 5784 5782 5781 5780 5779 5779 5778 5777 5776 5776 5776 5776 5775 5775 5775 5774
5821 5822 5821 5821 5822 5822 5823 5823 5823 5824 5825 5825 5825 5826 5826 5826 5827 5827 5827 5828 5827 5828 5828 5828 5828 5828 5828 5828 5827 5827 5826 5826 5825 5825 5824 5823 5822 5822 5821 5820 5819 5818 5817 5815 5814 5813 5812 5811 5809 5808 5806 5804 5803 5802 5800 5798 5796 5794 5793 5792 5791 5789 5789 5788 5786 5786 5785 5784 5782 5781 5779 5778 5777 5776 5775 5775 5774 5773 5772 5772 5772 5772 5772 5771 5771
5820 5821 5820 5819 5819 5820 5821 5822 5822 5823 5823 5823 5824 5824 5824 5825 5826 5826 5826 5826 5826 5826 5826 5826 5826 5826 5826 5826 5825 5825 5824 5824 5824 5823 5822 5821 5820 5820 5819 5818 5817 5816 5814 5813 5812 5811 5809 5808 5807 5805 5804 5802 5800 5798 5797 5796 5793 5791 5790 5788 5787 5785 5784 5783 5782 5781 5781 5781 5780 5778 5777 5775 5774 5773 5772 5771 5770 5769 5769 5769 5768 5768 5768 5768 5768
5818 5818 5818 5818 5818 5819 5820 5820 5821 5821 5821 5822 5822 5823 5823 5824 5824 5824 5824 5824 5824 5824 5824 5824 5824 5825 5825 5824 5823 5823 5822 5822 5821 5821 5820 5819 5818 5817 5816 5815 5814 5813 5812 5811 5809 5808 5807 5805 5804 5802 5800 5799 5797 5795 5793 5792 5791 5789 5787 5785 5783 5781 5779 5778 5777 5776 5775 5776 5777 5775 5774 5772 5771 5770 5769 5768 5767 5766 5765 5765 5765 5764 5764 5764 5764
5816 5816 5816 5817 5818 5819 5819 5819 5819 5820 5820 5821 5821 5822 5822 5822 5823 5823 5823 5823 5823 5823 5823 5823 5823 5823 5823 5822 5821 5820 5820 5819 5819 5818 5818 5817 5816 5815 5814 5812 5811 5810 5809 5808 5806 5805 5803 5802 5800 5798 5797 5795 5793 5792 5790 5788 5787 5785 5783 5782 5780 5778 5776 5774 5772 5771 5770 5770 5771 5771 5770 5769 5767 5766 5766 5765 5764 5763 5762 5761 5761 5760 5760 5760 5760
5814 5815 5816 5816 5817 5818 5818 5818 5819 5819 5819 5820 5820 5821 5821 5821 5821 5821 5821 5821 5821 5821 5821 5821 5821 5820 5820 5820 5819 5818 5818 5817 5816 5816 5815 5814 5813 5812 5811 5809 5808 5807 5805 5804 5803 5801 5800 5798 5797 5795 5793 5791 5790 5788 5786 5784 5782 5781 5779 5777 5776 5774 5773 5771 5768 5767 5766 5765 5765 5765 5766 5765 5763 5763 5762 5760 5760 5760 5758 5757 5756 5756 5756 5756 5756
5813 5814 5815 5815 5816 5817 5817 5817 5818 5818 5819 5819 5820 5820 5820 5820 5820 5820 5820 5820 5819 5819 5819 5819 5818 5818 5818 5817 5817 5816 5816 5815 5814 5813 5812 5811 5810 5809 5807 5806 5805 5803 5802 5801 5799 5798 5796 5795 5793 5791 5790 5788 5786 5784 5782 5780 5778 5776 5774 5772 5771 5769 5768 5767 5765 5763 5761 5760 5760 5760 5760 5760 5759 5758 5758 5756 5755 5755 5754 5753 5753 5752 5751 5752 5752